Weather History for Lee's Summit, MO

Change the Weather History Date:

Thursday, May 30, 2013

  Actual Average (KMKC) Record (KMKC)
Temperature  
Mean Temperature 66 °F -  
Max Temperature 72 °F 76 °F 96 °F (1998)
Min Temperature 62 °F 58 °F 55 °F (2004)
Cooling Degree Days 2    
Growing Degree Days 16 (Base 50)    
Moisture  
Dew Point 61 °F    
Average Humidity 89    
Maximum Humidity 94    
Minimum Humidity 68    
Precipitation  
Precipitation 1.62 in - - ()
Sea Level Pressure  
Sea Level Pressure 29.70 in    
Wind  
Wind Speed 12 mph (South)    
Max Wind Speed 22 mph    
Max Gust Speed 30 mph    
Visibility 7 miles    
Events Rain , Thunderstorm    
Averages and records for this station are not official NWS values.
T = Trace of Precipitation, MM = Missing Value Source: NWS Daily Summary

Daily Weather History Graph

Daily Weather History Graph

Search for Another Location

Airport:

Trip Planner

Search our weather history database for the weather conditions in past years. The results will help you decide how hot, cold, wet, or windy it might be!

Date:

Astronomy

May. 30, 2013 Rise Set
Actual Time 5:54 AM CDT 8:35 PM CDT
Civil Twilight 5:23 AM CDT 9:07 PM CDT
Nautical Twilight 4:44 AM CDT 9:46 PM CDT
Astronomical Twilight 4:00 AM CDT 10:30 PM CDT
Moon 12:39 AM CDT (5/30) 12:01 PM CDT (5/30)
Length of Visible Light 15h 44m
Length of Day
14h 41m
Waning Gibbous, 62% of the Moon is Illuminated
May 30
Waning Gibbous
May 31
Last Quarter
Jun 8
New
Jun 16
First Quarter
Jun 23
Full

Hourly Weather History & Observations

Time (CDT) Temp. Dew Point Humidity Pressure Visibility Wind Dir Wind Speed Gust Speed Precip Events Conditions
12:53 AM 64.0 °F 60.1 °F 87% 29.73 in 9.0 mi South 16.1 mph 27.6 mph 0.04 in Rain Light Rain
1:22 AM 64.4 °F 60.8 °F 88% 29.75 in 7.0 mi South 12.7 mph 23.0 mph 0.08 in Rain , Thunderstorm Rain
1:40 AM 62.6 °F 60.8 °F 94% 29.74 in 7.0 mi South 11.5 mph 19.6 mph 0.12 in Rain Light Rain
1:48 AM 62.6 °F 60.8 °F 94% 29.74 in 7.0 mi South 11.5 mph - 0.13 in Rain , Thunderstorm Rain
1:53 AM 63.0 °F 60.1 °F 90% 29.71 in 8.0 mi South 11.5 mph - 0.14 in Rain , Thunderstorm Light Rain
2:03 AM 62.6 °F 60.8 °F 94% 29.73 in 9.0 mi South 12.7 mph 18.4 mph 0.02 in Rain Light Rain
2:53 AM 63.0 °F 60.1 °F 90% 29.73 in 6.0 mi South 11.5 mph - 0.15 in Rain Rain
3:53 AM 63.0 °F 60.1 °F 90% 29.68 in 10.0 mi SSE 13.8 mph 24.2 mph 0.10 in Rain Light Rain
4:53 AM 63.0 °F 60.1 °F 90% 29.66 in 10.0 mi SSE 10.4 mph 20.7 mph 0.01 in Rain Light Rain
5:12 AM 62.6 °F 60.8 °F 94% 29.71 in 10.0 mi SSE 15.0 mph 21.9 mph 0.01 in Rain Light Rain
5:53 AM 63.0 °F 61.0 °F 93% 29.69 in 10.0 mi South 12.7 mph 20.7 mph 0.03 in Rain Light Rain
6:44 AM 62.6 °F 60.8 °F 94% 29.67 in 10.0 mi SSE 15.0 mph 21.9 mph 0.01 in Rain Light Rain
6:53 AM 64.0 °F 61.0 °F 90% 29.65 in 10.0 mi South 18.4 mph 27.6 mph 0.01 in Rain Light Rain
7:53 AM 64.0 °F 60.1 °F 87% 29.67 in 10.0 mi South 15.0 mph 29.9 mph 0.02 in Rain Light Rain
8:53 AM 64.0 °F 60.1 °F 87% 29.68 in 6.0 mi South 16.1 mph 25.3 mph 0.04 in Rain Rain
9:53 AM 63.0 °F 60.1 °F 90% 29.71 in 7.0 mi South 15.0 mph 20.7 mph 0.11 in Rain Light Rain
10:20 AM 62.6 °F 60.8 °F 94% 29.71 in 7.0 mi SSE 12.7 mph 19.6 mph 0.06 in Rain , Thunderstorm Light Rain
10:32 AM 62.6 °F 60.8 °F 94% 29.72 in 3.0 mi South 10.4 mph 27.6 mph 0.11 in Rain , Thunderstorm Light Rain
10:42 AM 62.6 °F 60.8 °F 94% 29.70 in 2.0 mi SSE 11.5 mph 21.9 mph 0.16 in Rain , Thunderstorm Rain
10:53 AM 63.0 °F 60.1 °F 90% 29.66 in 3.0 mi SE 8.1 mph - 0.21 in Rain , Thunderstorm Light Thunderstorms and Rain
11:08 AM 62.6 °F 60.8 °F 94% 29.67 in 10.0 mi SSE 11.5 mph 18.4 mph 0.00 in   Overcast
11:19 AM 62.6 °F 60.8 °F 94% 29.71 in 10.0 mi West 11.5 mph 18.4 mph 0.00 in   Overcast
11:32 AM 62.6 °F 60.8 °F 94% 29.71 in 2.5 mi West 16.1 mph 26.5 mph 0.04 in Rain Heavy Rain
11:40 AM 64.4 °F 60.8 °F 88% 29.71 in 3.0 mi SSW 8.1 mph 26.5 mph 0.06 in Rain Rain
11:53 AM 63.0 °F 61.0 °F 93% 29.70 in 4.0 mi WSW 4.6 mph - 0.09 in Rain Light Rain
12:03 PM 62.6 °F 60.8 °F 94% 29.72 in 1.8 mi West 6.9 mph - 0.08 in Rain , Thunderstorm Light Rain
12:13 PM 62.6 °F 60.8 °F 94% 29.74 in 0.8 mi West 10.4 mph - 0.23 in Rain , Thunderstorm Heavy Thunderstorms and Rain
12:20 PM 62.6 °F 60.8 °F 94% 29.75 in 1.0 mi West 15.0 mph 19.6 mph 0.34 in Rain , Thunderstorm Heavy Rain
12:29 PM 62.6 °F 60.8 °F 94% 29.75 in 1.0 mi WNW 11.5 mph 23.0 mph 0.42 in Rain , Thunderstorm Heavy Rain
12:43 PM 62.6 °F 60.8 °F 94% 29.73 in 1.5 mi WNW 5.8 mph 16.1 mph 0.53 in Rain , Thunderstorm Heavy Rain
12:53 PM 63.0 °F 60.1 °F 90% 29.70 in 2.0 mi Variable 3.5 mph - 0.58 in Rain , Thunderstorm Rain
1:01 PM 62.6 °F 60.8 °F 94% 29.69 in 8.0 mi Variable 3.5 mph - 0.00 in Rain , Thunderstorm Light Rain
1:14 PM 62.6 °F 59.0 °F 88% 29.68 in 10.0 mi South 6.9 mph - 0.01 in Rain , Thunderstorm Light Rain
1:53 PM 63.0 °F 59.0 °F 87% 29.64 in 8.0 mi SSW 4.6 mph - 0.04 in Rain , Thunderstorm Light Thunderstorms and Rain
2:17 PM 62.6 °F 59.0 °F 88% 29.72 in 10.0 mi South 21.9 mph 28.8 mph 0.02 in Rain Light Rain
2:29 PM 62.6 °F 59.0 °F 88% 29.70 in 8.0 mi SSE 18.4 mph 29.9 mph 0.04 in Rain , Thunderstorm Light Rain
2:48 PM 64.0 °F 60.1 °F 87% 29.68 in 10.0 mi South 10.4 mph 21.9 mph 0.05 in Rain , Thunderstorm Light Rain
3:08 PM 64.4 °F 60.8 °F 88% 29.68 in 10.0 mi SW 11.5 mph 16.1 mph 0.00 in   Mostly Cloudy
3:53 PM 66.0 °F 61.0 °F 84% 29.63 in 10.0 mi SSW 11.5 mph - 0.00 in   Scattered Clouds
4:53 PM 71.1 °F 60.1 °F 68% 29.64 in 10.0 mi SSW 13.8 mph 20.7 mph N/A   Clear
5:53 PM 71.1 °F 60.1 °F 68% 29.65 in 10.0 mi SSW 12.7 mph 23.0 mph N/A   Clear
6:53 PM 70.0 °F 60.1 °F 71% 29.66 in 10.0 mi South 11.5 mph 18.4 mph N/A   Clear
7:53 PM 68.0 °F 61.0 °F 78% 29.69 in 10.0 mi South 8.1 mph - N/A   Clear
8:53 PM 66.0 °F 61.0 °F 84% 29.71 in 10.0 mi South 6.9 mph - N/A   Clear
9:53 PM 64.0 °F 61.0 °F 90% 29.73 in 10.0 mi South 6.9 mph - N/A   Clear
10:53 PM 64.9 °F 62.1 °F 90% 29.73 in 10.0 mi South 15.0 mph 21.9 mph N/A   Clear
11:53 PM 66.0 °F 62.1 °F 87% 29.75 in 10.0 mi SSW 9.2 mph - N/A   Clear